Powrót do katalogu

CZ-6A DEB

AktywnySSO
NORAD 56605·DEBRIS·🇨🇳 China

Wystrzelony Nov 11, 2022 z Taiyuan Satellite Launch Center

Loading…

Następne Przeloty (najbliższe 24 godziny)

TLE

ŚwieżeSource: Space-Track

Epoka: Sep 14, 2026, 21:12 UTC

1 56605U 22151AED 26257.88363584  .00003435  00000-0  11361-2 0  9999
2 56605  98.7702 296.0454 0000653  93.2796 266.8465 14.38623294188081

Śledź CZ-6A DEB w czasie rzeczywistym z AllMySat

Download on the App Store